Regional Weather Roundup
Issued by NWS

Home | Current Version | Previous Version | Text Only | Print | Product List | Glossary On
Versions: 1 2 3 4 5 6 7 8 9 10 11 12 13 14 15 16 17 18 19 20 21 22 23 24 25 26 27 28 29 30 31 32 33 34 35 36 37 38 39 40 41 42 43 44 45 46 47 48 49 50
000
ASUS43 KLMK 261310
RWRKY
NATIONAL WEATHER SERVICE LOUISVILLE KY
800 AM EST WED NOV 26 2014

NOTE "FAIR" INDICATES FEW OR NO CLOUDS BELOW 12,000 FEET
WITH NO SIGNIFICANT WEATHER AND/OR OBSTRUCTIONS TO VISIBILITY.

KYZ001>023-026-027-061>063-070>075-261400-
WESTERN AND SOUTH CENTRAL KENTUCKY

CITY           SKY/WX    TMP DP  RH WIND       PRES   REMARKS
PADUCAH        MOCLDY    24  22  91 E3        30.13S FOG
HENDERSON      CLEAR     21  18  86 CALM      30.16R
OWENSBORO      CLEAR     22  21  96 W5        30.16R FOG     WCI  16
HOPKINSVILLE   CLEAR     25  24  99 W2        30.15R
BOWLING GREEN  CLEAR     27  23  85 CALM      30.15R FOG
GLASGOW        CLEAR    N/A N/A N/A CALM      30.12R FOG
$$

KYZ024-025-028>034-038-045-046-053-261400-
NORTH CENTRAL KENTUCKY

CITY           SKY/WX    TMP DP  RH WIND       PRES   REMARKS
LOUISVILLE/SDF PTCLDY    28  24  85 N3        30.13R FOG
LOUISVILLE/LOU CLEAR     26  23  88 CALM      30.14R FOG
FORT KNOX      CLEAR     21  20  93 CALM      30.11R FOG
$$

KYZ035>037-039>044-047>052-055>060-089>105-261400-
NORTHEAST KENTUCKY

CITY           SKY/WX    TMP DP  RH WIND       PRES   REMARKS
LEXINGTON      CLEAR     26  24  92 NW5       30.09R FOG     WCI  20
COVINGTON      MOCLDY    27  22  81 N5        30.12R WCI  22
FRANKFORT      CLEAR     25  23  92 NW3       30.11R FOG
$$

KYZ054-064>069-076>088-106>120-261400-
SOUTHEAST KENTUCKY

CITY           SKY/WX    TMP DP  RH WIND       PRES   REMARKS
JACKSON        CLOUDY    33  26  75 CALM      30.03R
LONDON         CLOUDY    37  28  70 NW5       30.06R WCI  33
SOMERSET       CLEAR     32  28  86 NW3       30.10R
MIDDLESBORO    NOT AVBL
MONTICELLO     SUNNY     30  28  92 CALM      30.12R
$$




USA.gov is the U.S. government's official web portal to all federal, state and local government web resources and services.